FW2982 Weather Reports


Display with metric or nautical units.
time (UTC)temp
F
wind
direction
speed
MPH
gust
MPH
rain 1hr
in
rain 24hr
in
rain mn
in
humidity
%
barometer
mb
20260901152053 94 217 0.0 2.0 0.00 0.00 0.00 63 1014.9
20260901151554 94 193 1.0 2.0 0.00 0.00 0.00 63 1015.0
20260901151053 94 288 0.0 2.0 0.00 0.00 0.00 63 1015.0
20260901150552 94 268 1.0 3.0 0.00 0.00 0.00 64 1015.0
20260901150051 93 14 1.0 3.0 0.00 0.00 0.00 65 1014.9
20260901145552 93 337 0.0 0.0 0.00 0.00 0.00 65 1015.0
20260901145052 91 333 0.0 1.0 0.00 0.00 0.00 67 1015.0
20260901144552 90 344 0.0 1.0 0.00 0.00 0.00 68 1015.1
20260901144051 91 344 0.0 2.0 0.00 0.00 0.00 67 1015.1
20260901143552 92 340 0.0 2.0 0.00 0.00 0.00 64 1015.1
20260901143051 93 357 0.0 4.0 0.00 0.00 0.00 64 1015.1
20260901142551 93 357 2.0 4.0 0.00 0.00 0.00 64 1015.1
20260901142352 91 298 0.0 0.0 0.00 0.00 0.00 68 1015.1
20260901142348 92 305 0.0 3.0 0.00 0.00 0.00 68 1015.1
20260901141050 90 298 0.0 0.0 0.00 0.00 0.00 67 1015.1
20260901140551 91 259 0.0 0.0 0.00 0.00 0.00 66 1015.1
20260901140333 91 307 0.0 0.0 0.00 0.00 0.00 66 1015.0
20260901135829 90 203 0.0 0.0 0.00 0.00 0.00 67 1015.2
20260901135050 91 258 0.0 0.0 0.00 0.00 0.00 68 1015.1
20260901134829 90 258 0.0 0.0 0.00 0.00 0.00 70 1015.0
20260901134051 90 258 0.0 0.0 0.00 0.00 0.00 69 1015.1
20260901133551 90 16 0.0 0.0 0.00 0.00 0.00 72 1015.1
20260901133050 89 62 0.0 0.0 0.00 0.00 0.00 73 1015.1
20260901132827 88 62 0.0 0.0 0.00 0.00 0.00 75 1015.2
20260901132049 87 62 0.0 0.0 0.00 0.00 0.00 77 1015.1
20260901131550 87 62 0.0 0.0 0.00 0.00 0.00 77 1015.2
20260901131049 85 62 0.0 0.0 0.00 0.00 0.00 79 1015.3
20260901130550 86 62 0.0 0.0 0.00 0.00 0.00 79 1015.2
20260901130048 84 62 0.0 0.0 0.00 0.00 0.00 83 1015.4
20260901125548 78 62 0.0 0.0 0.00 0.00 0.00 96 1015.4
20260901125045 78 62 0.0 0.0 0.00 0.00 0.00 96 1015.4
20260901124827 78 62 0.0 0.0 0.00 0.00 0.00 96 1015.4
20260901124044 76 62 0.0 0.0 0.00 0.00 0.00 97 1015.5
20260901123545 76 62 0.0 0.0 0.00 0.00 0.00 97 1015.5
20260901123045 75 62 0.0 0.0 0.00 0.00 0.00 97 1015.5
20260901122544 75 62 0.0 0.0 0.00 0.00 0.00 97 1015.6
20260901122044 75 62 0.0 0.0 0.00 0.00 0.00 97 1015.6
20260901121545 74 62 0.0 0.0 0.00 0.00 0.00 97 1015.6
20260901121325 74 62 0.0 0.0 0.00 0.00 0.00 97 1015.5
20260901120544 74 62 0.0 0.0 0.00 0.00 0.00 97 1015.4
20260901120042 74 62 0.0 0.0 0.00 0.00 0.00 97 1015.3
20260901115545 74 62 0.0 0.0 0.00 0.00 0.00 97 1015.4
20260901115043 74 62 0.0 0.0 0.00 0.00 0.00 97 1015.4
20260901114821 74 62 0.0 0.0 0.00 0.00 0.00 97 1015.2
20260901114042 74 62 0.0 0.0 0.00 0.00 0.00 97 1015.1
20260901113543 73 62 0.0 0.0 0.00 0.00 0.00 97 1015.1
20260901113042 73 62 0.0 0.0 0.00 0.00 0.00 97 1015.1
20260901112542 73 62 0.0 0.0 0.00 0.00 0.00 97 1014.8
20260901112043 73 62 0.0 0.0 0.00 0.00 0.00 97 1014.9
20260901111542 73 62 0.0 0.0 0.00 0.00 0.00 97 1014.9
20260901111042 73 62 0.0 0.0 0.00 0.00 0.00 97 1014.9
20260901110542 73 62 0.0 0.0 0.00 0.00 0.00 97 1014.9
20260901110042 72 62 0.0 0.0 0.00 0.00 0.00 97 1014.9
20260901105538 73 62 0.0 0.0 0.00 0.00 0.00 97 1014.9
20260901105036 73 62 0.0 0.0 0.00 0.00 0.00 97 1014.9
20260901104535 73 62 0.0 0.0 0.00 0.00 0.00 97 1014.9
20260901104032 73 62 0.0 0.0 0.00 0.00 0.00 97 1014.8
20260901103531 73 62 0.0 0.0 0.00 0.00 0.00 97 1014.8
20260901103032 73 62 0.0 0.0 0.00 0.00 0.00 97 1014.7
20260901102511 73 62 0.0 0.0 0.00 0.00 0.00 97 1014.7
20260901102243 73 62 0.0 0.0 0.00 0.00 0.00 97 1014.7
20260901101504 73 62 0.0 0.0 0.00 0.00 0.00 97 1014.6
20260901101004 73 62 0.0 0.0 0.00 0.00 0.00 97 1014.6
20260901100503 73 62 0.0 0.0 0.00 0.00 0.00 97 1014.6
20260901100004 73 62 0.0 0.0 0.00 0.00 0.00 97 1014.6
20260901095504 73 62 0.0 0.0 0.00 0.00 0.00 97 1014.5
20260901095003 73 62 0.0 0.0 0.00 0.00 0.00 97 1014.6
20260901094504 73 62 0.0 0.0 0.00 0.00 0.00 97 1014.6
20260901094004 73 62 0.0 0.0 0.00 0.00 0.00 97 1014.6
20260901093505 73 62 0.0 0.0 0.00 0.00 0.00 97 1014.6
20260901093003 73 62 0.0 0.0 0.00 0.00 0.00 97 1014.7
20260901092503 73 62 0.0 0.0 0.00 0.00 0.00 97 1014.7
20260901092305 73 62 0.0 0.0 0.00 0.00 0.00 97 1014.8
20260901092017 73 62 0.0 0.0 0.00 0.00 0.00 97 1014.7
20260901091002 73 62 0.0 0.0 0.00 0.00 0.00 97 1014.9
20260901090503 73 62 0.0 0.0 0.00 0.00 0.00 97 1014.8
20260901090004 73 62 0.0 0.0 0.00 0.00 0.00 97 1014.8
20260901085505 73 62 0.0 0.0 0.00 0.00 0.00 97 1014.8
20260901085003 73 62 0.0 0.0 0.00 0.00 0.00 97 1014.8
20260901084503 73 62 0.0 0.0 0.00 0.00 0.00 97 1014.9
20260901084002 73 62 0.0 0.0 0.00 0.00 0.00 97 1014.9
20260901083503 73 62 0.0 0.0 0.00 0.00 0.00 97 1014.9
20260901083002 73 62 0.0 0.0 0.00 0.00 0.00 97 1014.9
20260901082506 73 62 0.0 0.0 0.00 0.00 0.00 97 1014.9
20260901082002 73 62 0.0 0.0 0.00 0.00 0.00 97 1014.9
20260901081502 73 62 0.0 0.0 0.00 0.00 0.00 97 1014.8
20260901081002 73 62 0.0 0.0 0.00 0.01 0.00 97 1014.7
20260901080502 73 62 0.0 0.0 0.00 0.01 0.00 97 1014.8
20260901080241 73 62 0.0 0.0 0.00 0.01 0.00 97 1014.8
20260901075502 73 62 0.0 0.0 0.00 0.01 0.00 96 1014.9
20260901075002 73 62 0.0 0.0 0.00 0.01 0.00 96 1014.9
20260901074502 73 62 0.0 0.0 0.00 0.01 0.00 96 1014.9
20260901074002 73 62 0.0 0.0 0.00 0.01 0.00 96 1015.0
20260901073501 73 62 0.0 0.0 0.00 0.01 0.00 96 1015.0
20260901073003 73 62 0.0 0.0 0.00 0.01 0.00 96 1015.0
20260901072741 73 62 0.0 0.0 0.00 0.01 0.00 97 1015.1
20260901072001 73 62 0.0 0.0 0.00 0.01 0.00 97 1015.2
20260901071505 73 62 0.0 0.0 0.00 0.01 0.00 97 1015.2
20260901071003 73 62 0.0 0.0 0.00 0.01 0.00 96 1015.1
20260901070457 73 62 0.0 0.0 0.00 0.01 0.00 96 1015.1
20260901065947 73 62 0.0 0.0 0.00 0.01 0.00 96 1015.2
20260901065448 73 62 0.0 0.0 0.00 0.01 0.00 96 1015.2
20260901064947 73 62 0.0 0.0 0.00 0.01 0.00 96 1015.3
20260901064726 73 62 0.0 0.0 0.00 0.01 0.00 96 1015.3
20260901063945 73 62 0.0 0.0 0.00 0.01 0.00 96 1015.4
20260901063446 73 62 0.0 0.0 0.00 0.01 0.00 96 1015.4
20260901063222 73 62 0.0 0.0 0.00 0.01 0.00 96 1015.5
20260901062446 73 62 0.0 0.0 0.00 0.01 0.00 96 1015.4
20260901061945 73 62 0.0 0.0 0.00 0.01 0.00 96 1015.5
20260901061440 73 62 0.0 0.0 0.00 0.01 0.00 96 1015.5
20260901060941 73 62 0.0 0.0 0.00 0.01 0.00 96 1015.5
20260901060725 73 62 0.0 0.0 0.00 0.01 0.00 96 1015.5
20260901055942 73 62 0.0 0.0 0.00 0.01 0.00 96 1015.5
20260901055441 73 62 0.0 0.0 0.00 0.01 0.00 96 1015.4
20260901054940 73 62 0.0 0.0 0.00 0.01 0.00 96 1015.6
20260901054440 73 62 0.0 0.0 0.00 0.01 0.00 96 1015.7
20260901053940 73 62 0.0 0.0 0.00 0.01 0.00 96 1015.7
20260901053438 73 62 0.0 0.0 0.00 0.01 0.00 96 1015.8
20260901052937 73 62 0.0 0.0 0.00 0.01 0.00 96 1015.9
20260901052434 74 62 0.0 0.0 0.00 0.01 0.00 96 1015.9
20260901051957 73 62 0.0 0.0 0.00 0.01 0.00 96 1016.0
20260901051949 73 62 0.0 0.0 0.00 0.01 0.00 96 1016.0
20260901050934 73 62 0.0 0.0 0.00 0.01 0.00 96 1016.0
20260901050433 73 62 0.0 0.0 0.00 0.01 0.00 96 1015.9
20260901045932 73 62 0.0 0.0 0.00 0.01 0.00 96 1016.0
20260901045431 73 62 0.0 0.0 0.00 0.01 0.00 96 1016.1
20260901044931 74 62 0.0 0.0 0.00 0.01 0.00 96 1016.1
20260901044712 73 62 0.0 0.0 0.00 0.01 0.00 96 1016.2
20260901043934 73 62 0.0 0.0 0.00 0.01 0.00 96 1016.2
20260901043431 73 62 0.0 0.0 0.00 0.01 0.00 96 1016.2
20260901042929 73 62 0.0 0.0 0.00 0.01 0.00 96 1016.2
20260901042427 73 62 0.0 0.0 0.00 0.01 0.00 96 1016.2
20260901042211 73 62 0.0 0.0 0.00 0.01 0.00 96 1016.3
20260901041428 73 62 0.0 0.0 0.00 0.01 0.00 96 1016.2
20260901040928 73 62 0.0 0.0 0.00 0.01 0.00 96 1016.2
20260901040711 73 62 0.0 0.0 0.00 0.01 0.00 96 1016.4
20260901035927 73 62 0.0 0.0 0.00 0.01 0.01 96 1016.3
20260901035427 73 62 0.0 0.0 0.00 0.01 0.01 96 1016.4
20260901034927 73 62 0.0 0.0 0.00 0.01 0.01 95 1016.3
20260901034711 74 62 0.0 0.0 0.00 0.01 0.01 95 1016.3
20260901033927 74 62 0.0 0.0 0.00 0.01 0.01 96 1016.3
20260901033453 74 62 0.0 0.0 0.00 0.01 0.01 96 1016.3
20260901033444 74 62 0.0 0.0 0.00 0.01 0.01 96 1016.3
20260901032427 74 62 0.0 0.0 0.00 0.01 0.01 96 1016.3
20260901031926 74 62 0.0 0.0 0.00 0.01 0.01 95 1016.4
20260901031428 74 62 0.0 0.0 0.00 0.01 0.01 95 1016.4
20260901031209 74 62 0.0 0.0 0.00 0.01 0.01 95 1016.4
20260901030426 74 62 0.0 0.0 0.00 0.01 0.01 95 1016.4
20260901025925 74 62 0.0 0.0 0.00 0.01 0.01 95 1016.4
20260901025426 74 62 0.0 0.0 0.00 0.01 0.01 95 1016.4
20260901025205 74 62 0.0 0.0 0.00 0.01 0.01 95 1016.4
20260901024425 74 62 0.0 0.0 0.00 0.01 0.01 95 1016.4
20260901023925 74 62 0.0 0.0 0.00 0.01 0.01 95 1016.4
20260901023426 74 62 0.0 0.0 0.00 0.01 0.01 95 1016.5
20260901022926 75 62 0.0 0.0 0.00 0.01 0.01 95 1016.4
20260901022425 75 62 0.0 0.0 0.00 0.01 0.01 95 1016.5
20260901022203 75 62 0.0 0.0 0.00 0.01 0.01 95 1016.4
20260901021426 75 62 0.0 0.0 0.00 0.01 0.01 95 1016.4
20260901020925 75 62 0.0 0.0 0.00 0.01 0.01 95 1016.3
20260901020425 75 62 0.0 0.0 0.00 0.01 0.01 95 1016.3
20260901015924 75 62 0.0 0.0 0.00 0.01 0.01 95 1016.4
20260901015424 75 62 0.0 0.0 0.00 0.01 0.01 95 1016.4
20260901014926 75 62 0.0 0.0 0.00 0.01 0.01 94 1016.3
20260901014426 75 62 0.0 0.0 0.00 0.01 0.01 94 1016.4
20260901013927 76 62 0.0 0.0 0.00 0.02 0.01 94 1016.3
20260901013425 76 62 0.0 0.0 0.00 0.03 0.01 94 1016.3
20260901012925 76 62 0.0 0.0 0.00 0.03 0.01 94 1016.2
20260901012423 76 62 0.0 0.0 0.00 0.03 0.01 94 1016.3
20260901011923 76 62 0.0 0.0 0.00 0.04 0.01 94 1016.2
20260901011707 76 62 0.0 0.0 0.00 0.05 0.01 94 1016.1
20260901010925 77 62 0.0 0.0 0.00 0.06 0.01 94 1016.2
20260901010423 77 62 0.0 0.0 0.00 0.07 0.01 94 1016.2
20260901010209 77 62 0.0 0.0 0.00 0.08 0.01 94 1016.2
20260901005424 77 62 0.0 0.0 0.00 0.09 0.01 94 1016.0
20260901004923 77 62 0.0 0.0 0.00 0.10 0.01 93 1015.9
20260901004423 77 62 0.0 0.0 0.00 0.11 0.01 93 1015.8
20260901003922 77 62 0.0 0.0 0.00 0.13 0.01 93 1015.8
20260901003422 77 62 0.0 0.0 0.00 0.14 0.01 93 1015.8
20260901003204 77 62 0.0 0.0 0.00 0.16 0.01 93 1015.8
20260901002422 78 62 0.0 0.0 0.00 0.18 0.01 92 1015.8
20260901001923 78 62 0.0 0.0 0.00 0.20 0.01 92 1015.8
20260901001701 78 62 0.0 0.0 0.00 0.23 0.01 92 1015.8
20260901000923 78 62 0.0 0.0 0.00 0.25 0.01 92 1015.7
20260901000422 78 62 0.0 0.0 0.00 0.28 0.01 91 1015.8
20260901000204 78 62 0.0 0.0 0.00 0.31 0.01 91 1015.9
20260831235422 78 62 0.0 0.0 0.00 0.35 0.01 91 1015.8
20260831234921 78 62 0.0 0.0 0.00 0.39 0.01 90 1015.8
20260831234420 78 62 0.0 0.0 0.00 0.43 0.01 90 1015.8
20260831234200 79 62 0.0 0.0 0.00 0.47 0.01 89 1015.7
20260831233452 80 62 0.0 0.0 0.00 0.51 0.01 88 1015.8
20260831233441 79 62 0.0 0.0 0.00 0.50 0.01 89 1015.8
20260831232420 80 62 0.0 0.0 0.00 0.51 0.01 87 1015.8
20260831231919 80 62 0.0 0.0 0.00 0.51 0.01 87 1015.8
20260831231419 81 62 0.0 0.0 0.00 0.51 0.01 86 1015.8
20260831230919 81 62 0.0 0.0 0.00 0.51 0.01 86 1015.9
20260831230419 81 62 0.0 0.0 0.00 0.51 0.01 86 1015.9
20260831225919 81 62 0.0 0.0 0.00 0.51 0.01 87 1015.9
20260831225420 81 62 0.0 0.0 0.00 0.51 0.01 87 1015.9
20260831224919 81 62 0.0 0.0 0.00 0.51 0.01 86 1016.0
20260831224418 81 62 0.0 0.0 0.00 0.51 0.01 87 1016.0
20260831224159 81 62 0.0 0.0 0.00 0.51 0.01 86 1016.1
20260831223420 81 62 0.0 0.0 0.00 0.51 0.01 86 1016.2
20260831222918 81 62 0.0 0.0 0.00 0.51 0.01 85 1016.2
20260831222659 82 62 0.0 0.0 0.00 0.51 0.01 84 1016.3
20260831221918 82 62 0.0 0.0 0.00 0.51 0.01 84 1016.5
20260831221417 82 62 0.0 0.0 0.00 0.51 0.01 85 1016.5
20260831221157 82 62 0.0 0.0 0.00 0.51 0.01 84 1016.5
20260831220417 82 62 0.0 0.0 0.00 0.51 0.01 85 1016.6
20260831215917 82 62 0.0 0.0 0.00 0.51 0.01 84 1016.5
20260831215417 82 62 0.0 0.0 0.00 0.51 0.01 84 1016.6
20260831214918 82 62 0.0 0.0 0.00 0.51 0.01 84 1016.4
20260831214420 82 62 0.0 0.0 0.00 0.51 0.01 83 1016.5
20260831213918 82 62 0.0 0.0 0.00 0.51 0.01 85 1016.4
20260831213417 83 62 0.0 0.0 0.00 0.51 0.01 83 1016.4
20260831212917 82 62 0.0 0.0 0.00 0.51 0.01 84 1016.5
20260831212440 82 62 0.0 0.0 0.00 0.51 0.01 85 1016.5
20260831212431 82 62 0.0 0.0 0.00 0.51 0.01 85 1016.5
20260831211417 82 62 0.0 0.0 0.00 0.51 0.01 84 1016.5
20260831210916 83 62 0.0 0.0 0.00 0.51 0.01 83 1016.5
20260831210416 83 62 0.0 0.0 0.00 0.51 0.01 83 1016.5
20260831205914 83 62 0.0 0.0 0.00 0.51 0.01 83 1016.5
20260831205405 83 62 0.0 0.0 0.00 0.51 0.01 83 1016.5
20260831204904 83 62 0.0 0.0 0.00 0.51 0.01 83 1016.4
20260831204403 84 76 0.0 0.0 0.00 0.51 0.01 80 1016.4
20260831204142 84 76 0.0 0.0 0.00 0.51 0.01 80 1016.4
20260831203403 84 76 0.0 1.0 0.00 0.51 0.01 80 1016.5
20260831202904 84 76 0.0 1.0 0.00 0.51 0.01 80 1016.5
20260831202726 84 76 0.0 1.0 0.00 0.51 0.01 80 1016.4
20260831202720 84 76 0.0 1.0 0.00 0.51 0.01 81 1016.4
20260831202429 84 76 0.0 1.0 0.00 0.51 0.01 80 1016.5
20260831200901 84 56 0.0 1.0 0.00 0.51 0.01 79 1016.4
20260831200402 85 56 0.0 1.0 0.00 0.51 0.01 79 1016.5
20260831195902 85 56 0.0 0.0 0.00 0.51 0.01 78 1016.5
20260831195405 85 73 0.0 1.0 0.00 0.51 0.01 76 1016.5
20260831194833 84 73 0.0 1.0 0.00 0.51 0.01 77 1016.5
20260831194332 84 73 0.0 1.0 0.00 0.51 0.01 79 1016.4
20260831193831 83 73 0.0 0.0 0.00 0.51 0.01 82 1016.5
20260831193332 83 73 0.0 0.0 0.00 0.51 0.01 81 1016.5
20260831192832 83 73 0.0 0.0 0.00 0.51 0.01 80 1016.6
20260831192332 83 73 0.0 0.0 0.00 0.51 0.01 79 1016.5
20260831191827 84 73 0.0 0.0 0.00 0.51 0.01 77 1016.7
20260831191314 85 73 0.0 0.0 0.00 0.51 0.01 76 1016.8
20260831190814 85 73 0.0 0.0 0.00 0.51 0.01 74 1016.8
20260831190546 86 73 0.0 1.0 0.00 0.51 0.01 73 1016.9
20260831185806 86 73 0.0 1.0 0.00 0.51 0.01 75 1016.9
20260831185306 87 73 0.0 2.0 0.00 0.51 0.01 72 1017.0
20260831184804 86 73 0.0 3.0 0.00 0.51 0.01 73 1017.0
20260831184304 86 73 1.0 3.0 0.00 0.51 0.01 72 1017.1
20260831183805 87 312 1.0 2.0 0.00 0.51 0.01 71 1017.0
20260831183305 87 312 1.0 3.0 0.00 0.51 0.01 71 1017.0
20260831182804 86 32 1.0 3.0 0.00 0.51 0.01 74 1017.1
20260831182305 86 281 1.0 3.0 0.00 0.51 0.01 74 1017.1
20260831181803 86 97 0.0 1.0 0.00 0.51 0.01 75 1017.0
20260831181303 87 97 0.0 1.0 0.00 0.51 0.01 75 1017.1
20260831180804 87 97 0.0 1.0 0.00 0.51 0.01 75 1017.0
20260831180303 87 97 0.0 3.0 0.00 0.51 0.01 71 1017.0
20260831175803 87 118 0.0 3.0 0.00 0.51 0.01 70 1017.1
20260831175542 88 172 0.0 1.0 0.00 0.51 0.01 72 1017.1
20260831174802 88 173 1.0 2.0 0.00 0.51 0.01 71 1017.2
20260831174543 87 0 1.0 2.0 0.00 0.51 0.01 70 1017.1
20260831173827 86 94 0.0 2.0 0.00 0.51 0.01 76 1017.3
20260831173817 86 109 1.0 2.0 0.00 0.51 0.01 71 1017.2
20260831172802 84 93 0.0 2.0 0.00 0.51 0.01 76 1017.4
20260831172305 85 93 0.0 2.0 0.00 0.51 0.01 76 1017.4
20260831171802 85 93 0.0 2.0 0.00 0.51 0.01 74 1017.4
20260831171305 85 92 1.0 2.0 0.00 0.51 0.01 76 1017.4
20260831170804 85 93 1.0 3.0 0.00 0.51 0.01 77 1017.4
20260831170605 87 90 1.0 3.0 0.00 0.51 0.01 72 1017.3
20260831170316 85 93 1.0 3.0 0.00 0.51 0.01 75 1017.3
20260831165305 87 71 0.0 2.0 0.00 0.51 0.01 74 1017.6
20260831164803 86 71 0.0 1.0 0.00 0.51 0.01 75 1017.7
20260831164543 85 68 0.0 2.0 0.00 0.51 0.01 77 1017.8
20260831163803 85 68 0.0 2.0 0.00 0.51 0.01 77 1017.9
20260831163304 84 41 0.0 2.0 0.00 0.51 0.01 77 1017.8
20260831162803 84 41 1.0 4.0 0.00 0.51 0.01 78 1018.0
20260831162542 84 99 0.0 4.0 0.00 0.51 0.01 75 1017.9
20260831161800 85 54 1.0 3.0 0.00 0.51 0.01 76 1018.0
20260831161259 86 71 0.0 4.0 0.00 0.51 0.01 74 1018.0
20260831160759 86 39 3.0 4.0 0.00 0.51 0.01 79 1018.0
20260831160300 84 83 2.0 3.0 0.00 0.51 0.01 80 1018.1
20260831155758 84 264 0.0 3.0 0.00 0.51 0.01 78 1018.2
20260831155259 85 258 1.0 3.0 0.00 0.51 0.01 76 1018.0
20260831154758 87 61 1.0 3.0 0.00 0.51 0.01 76 1017.9
20260831154258 85 42 0.0 3.0 0.00 0.51 0.01 77 1017.9
20260831153757 85 35 1.0 6.0 0.00 0.51 0.01 76 1017.8
20260831153258 85 94 1.0 6.0 0.00 0.51 0.01 75 1017.8
20260831152757 86 49 2.0 4.0 0.00 0.51 0.01 77 1017.7
20260831152258 85 106 1.0 4.0 0.00 0.51 0.01 77 1017.7